Hourly Data Report for September 13, 2021

TORONTO CITY
ONTARIO
Current Station Operator: ECCC - MSC

43°40'00.000" N
79°24'00.000" W
112.50 m
6158355
71508
XTO

Download Data

Hourly Data (September 2021)
Hourly Data Report for September 13, 2021
TIME
LST
Temp Definition
°C
Dew Point Definition
°C
Rel Hum Definition
%
Precip. Amount Definition
mm

Wind Dir Definition
10's deg

Wind Spd Definition
km/h
Visibility Definition
km
Stn Press Definition
kPa
Hmdx Definition


Wind Chill Definition


Weather Definition


00:00 15.9 14.3 90 0.5       100.28     LegendNANA
01:00 16.1 14.8 92 0.1       100.40     LegendNANA
02:00 15.9 14.5 92 0.0       100.41     LegendNANA
03:00 14.9 13.7 93 0.0       100.42     LegendNANA
04:00 14.7 12.3 86 0.0       100.44     LegendNANA
05:00 13.8 12.0 89 0.0       100.49     LegendNANA
06:00 13.4 11.7 89 0.0       100.56     LegendNANA
07:00 14.4 12.3 87 0.0       100.62     LegendNANA
08:00 17.2 12.3 73 0.0       100.62     LegendNANA
09:00 18.9 13.0 68 0.0       100.67     LegendNANA
10:00 19.8 12.4 63 0.0       100.67     LegendNANA
11:00 20.9 11.5 55 0.0       100.53     LegendNANA
12:00 21.7 13.4 59 0.0       100.51 25   LegendNANA
13:00 20.4 13.0 62 0.0       100.54     LegendNANA
14:00 21.2 12.6 58 0.0       100.55     LegendNANA
15:00 21.2 12.9 59 0.0       100.52     LegendNANA
16:00 20.7 13.0 62 0.0       100.51     LegendNANA
17:00 21.5 12.1 55 0.0       100.31     LegendNANA
18:00 21.7 11.0 51 0.0       100.32     LegendNANA
19:00 19.7 9.1 50 0.0       100.41     LegendNANA
20:00 18.5 10.7 60 0.0       100.46     LegendNANA
21:00 18.2 12.0 67 0.0       100.47     LegendNANA
22:00 17.7 12.0 69 0.0       100.46     LegendNANA
23:00 17.9 12.0 68 0.0       100.41     LegendNANA

Notes on Data Quality.

Legend

  • E = Estimated
  • M = Missing
  • NA = Not Available*
  • [empty] = Indicates an unobserved value
Date modified: